| time (UTC) | temp F | wind direction | speed MPH | gust MPH | rain 1hr in | rain 24hr in | rain mn in | humidity % | barometer mb |
| 20260505010852 | 59 | 104 | 3.0 | 7.0 | 0.00 | 0.05 | 0.00 | 63 | 1018.6 |
| 20260505010348 | 59 | 2 | 3.0 | 7.0 | 0.00 | 0.05 | 0.00 | 60 | 1018.6 |
| 20260505010109 | 59 | 304 | 2.0 | 7.0 | 0.00 | 0.05 | 0.00 | 59 | 1018.6 |
| 20260505005618 | 59 | 353 | 1.0 | 6.0 | 0.00 | 0.05 | 0.00 | 59 | 1018.5 |
| 20260505004848 | 59 | 56 | 2.0 | 8.0 | 0.00 | 0.05 | 0.00 | 59 | 1018.6 |
| 20260505004349 | 59 | 63 | 4.0 | 11.0 | 0.00 | 0.05 | 0.00 | 59 | 1018.6 |
| 20260505003846 | 59 | 344 | 3.0 | 11.0 | 0.00 | 0.05 | 0.00 | 58 | 1018.6 |
| 20260505003347 | 59 | 27 | 2.0 | 9.0 | 0.00 | 0.06 | 0.00 | 60 | 1018.5 |
| 20260505002848 | 59 | 307 | 2.0 | 9.0 | 0.00 | 0.06 | 0.00 | 59 | 1018.4 |
| 20260505002612 | 59 | 295 | 2.0 | 7.0 | 0.00 | 0.06 | 0.00 | 59 | 1018.4 |
| 20260505001846 | 59 | 279 | 1.0 | 7.0 | 0.00 | 0.09 | 0.00 | 58 | 1018.2 |
| 20260505001348 | 58 | 22 | 1.0 | 5.0 | 0.00 | 0.10 | 0.00 | 62 | 1018.2 |
| 20260505001100 | 58 | 270 | 1.0 | 5.0 | 0.00 | 0.10 | 0.00 | 61 | 1018.1 |
| 20260505000343 | 58 | 26 | 1.0 | 5.0 | 0.00 | 0.10 | 0.00 | 60 | 1018.1 |
| 20260504235842 | 58 | 331 | 1.0 | 5.0 | 0.00 | 0.10 | 0.00 | 60 | 1018.0 |
| 20260504235342 | 58 | 48 | 1.0 | 5.0 | 0.00 | 0.11 | 0.00 | 61 | 1018.0 |
| 20260504235110 | 58 | 54 | 1.0 | 5.0 | 0.00 | 0.11 | 0.00 | 62 | 1018.0 |
| 20260504234342 | 58 | 26 | 1.0 | 7.0 | 0.00 | 0.13 | 0.00 | 63 | 1018.2 |
| 20260504233842 | 57 | 274 | 1.0 | 7.0 | 0.00 | 0.16 | 0.00 | 62 | 1018.1 |
| 20260504233340 | 57 | 356 | 1.0 | 4.0 | 0.00 | 0.17 | 0.00 | 63 | 1018.1 |
| 20260504232842 | 57 | 286 | 1.0 | 6.0 | 0.00 | 0.17 | 0.00 | 63 | 1017.8 |
| 20260504232602 | 57 | 29 | 2.0 | 7.0 | 0.00 | 0.17 | 0.00 | 66 | 1017.8 |
| 20260504231840 | 56 | 33 | 2.0 | 7.0 | 0.00 | 0.18 | 0.00 | 66 | 1017.6 |
| 20260504231340 | 56 | 243 | 2.0 | 7.0 | 0.00 | 0.19 | 0.00 | 67 | 1017.6 |
| 20260504230840 | 56 | 276 | 1.0 | 5.0 | 0.00 | 0.19 | 0.00 | 66 | 1017.7 |
| 20260504230340 | 57 | 332 | 0.0 | 4.0 | 0.00 | 0.19 | 0.00 | 66 | 1017.7 |
| 20260504230058 | 57 | 313 | 0.0 | 3.0 | 0.00 | 0.19 | 0.00 | 67 | 1017.8 |
| 20260504225342 | 56 | 351 | 0.0 | 3.0 | 0.00 | 0.20 | 0.00 | 67 | 1017.8 |
| 20260504224840 | 56 | 299 | 0.0 | 2.0 | 0.00 | 0.21 | 0.00 | 70 | 1017.9 |
| 20260504224340 | 55 | 57 | 0.0 | 4.0 | 0.00 | 0.24 | 0.00 | 70 | 1017.7 |
| 20260504223840 | 55 | 291 | 1.0 | 6.0 | 0.00 | 0.26 | 0.00 | 72 | 1017.7 |
| 20260504223340 | 54 | 280 | 1.0 | 6.0 | 0.00 | 0.28 | 0.00 | 71 | 1017.7 |
| 20260504222841 | 54 | 287 | 1.0 | 5.0 | 0.00 | 0.30 | 0.00 | 72 | 1017.6 |
| 20260504222340 | 53 | 271 | 1.0 | 7.0 | 0.00 | 0.36 | 0.00 | 74 | 1017.5 |
| 20260504221840 | 53 | 339 | 1.0 | 7.0 | 0.00 | 0.39 | 0.00 | 75 | 1017.3 |
| 20260504221341 | 52 | 305 | 1.0 | 4.0 | 0.00 | 0.40 | 0.00 | 79 | 1017.3 |
| 20260504220841 | 51 | 311 | 1.0 | 8.0 | 0.00 | 0.45 | 0.00 | 80 | 1017.2 |
| 20260504220339 | 51 | 334 | 2.0 | 8.0 | 0.00 | 0.46 | 0.00 | 81 | 1017.3 |
| 20260504215840 | 50 | 298 | 1.0 | 5.0 | 0.00 | 0.46 | 0.00 | 82 | 1017.3 |
| 20260504215610 | 50 | 0 | 1.0 | 5.0 | 0.00 | 0.46 | 0.00 | 83 | 1017.2 |
| 20260504214840 | 49 | 331 | 1.0 | 3.0 | 0.00 | 0.46 | 0.00 | 83 | 1017.2 |
| 20260504214340 | 49 | 284 | 1.0 | 5.0 | 0.00 | 0.46 | 0.00 | 84 | 1017.3 |
| 20260504213839 | 49 | 41 | 1.0 | 5.0 | 0.00 | 0.46 | 0.00 | 84 | 1017.3 |
| 20260504213821 | 48 | 306 | 0.0 | 3.0 | 0.00 | 0.46 | 0.00 | 85 | 1017.2 |
| 20260504213059 | 47 | 344 | 0.0 | 2.0 | 0.00 | 0.46 | 0.00 | 86 | 1017.2 |
| 20260504212555 | 47 | 55 | 0.0 | 0.0 | 0.00 | 0.46 | 0.00 | 87 | 1017.1 |
| 20260504211837 | 47 | 338 | 0.0 | 0.0 | 0.00 | 0.46 | 0.00 | 87 | 1017.1 |
| 20260504211602 | 47 | 338 | 0.0 | 0.0 | 0.00 | 0.46 | 0.00 | 87 | 1017.1 |
| 20260504210835 | 47 | 338 | 0.0 | 0.0 | 0.00 | 0.46 | 0.00 | 87 | 1017.1 |
| 20260504210559 | 47 | 338 | 0.0 | 0.0 | 0.00 | 0.46 | 0.00 | 86 | 1017.0 |
| 20260504205833 | 47 | 338 | 0.0 | 0.0 | 0.00 | 0.46 | 0.00 | 85 | 1016.9 |
| 20260504205333 | 47 | 338 | 0.0 | 0.0 | 0.00 | 0.46 | 0.00 | 84 | 1016.8 |
| 20260504205048 | 48 | 338 | 0.0 | 0.0 | 0.00 | 0.46 | 0.00 | 83 | 1016.7 |
| 20260504204327 | 48 | 338 | 0.0 | 0.0 | 0.00 | 0.46 | 0.00 | 82 | 1016.5 |
| 20260504203827 | 49 | 338 | 0.0 | 1.0 | 0.00 | 0.47 | 0.00 | 81 | 1016.5 |
| 20260504203326 | 49 | 338 | 0.0 | 1.0 | 0.00 | 0.47 | 0.00 | 80 | 1016.4 |
| 20260504202825 | 49 | 100 | 0.0 | 0.0 | 0.00 | 0.47 | 0.00 | 80 | 1016.4 |
| 20260504202553 | 49 | 100 | 0.0 | 4.0 | 0.00 | 0.47 | 0.00 | 80 | 1016.3 |
| 20260504201824 | 49 | 297 | 0.0 | 4.0 | 0.00 | 0.48 | 0.00 | 80 | 1016.2 |
| 20260504201322 | 49 | 282 | 0.0 | 2.0 | 0.00 | 0.48 | 0.00 | 79 | 1016.2 |
| 20260504200822 | 49 | 299 | 1.0 | 6.0 | 0.00 | 0.48 | 0.00 | 79 | 1016.1 |
| 20260504200318 | 49 | 286 | 1.0 | 6.0 | 0.00 | 0.48 | 0.00 | 80 | 1016.0 |
| 20260504195816 | 49 | 296 | 0.0 | 3.0 | 0.00 | 0.48 | 0.00 | 81 | 1015.9 |
| 20260504195313 | 49 | 280 | 0.0 | 3.0 | 0.00 | 0.49 | 0.00 | 80 | 1015.9 |
| 20260504195033 | 50 | 85 | 1.0 | 7.0 | 0.00 | 0.49 | 0.00 | 79 | 1016.0 |
| 20260504194531 | 50 | 85 | 1.0 | 7.0 | 0.00 | 0.51 | 0.00 | 79 | 1015.9 |
| 20260504194034 | 50 | 50 | 2.0 | 8.0 | 0.00 | 0.52 | 0.00 | 80 | 1015.8 |
| 20260504193311 | 49 | 41 | 2.0 | 8.0 | 0.00 | 0.52 | 0.00 | 81 | 1015.7 |
| 20260504192813 | 49 | 32 | 1.0 | 6.0 | 0.00 | 0.52 | 0.00 | 82 | 1015.7 |
| 20260504192313 | 49 | 46 | 2.0 | 9.0 | 0.00 | 0.53 | 0.00 | 82 | 1015.5 |
| 20260504191812 | 49 | 55 | 2.0 | 9.0 | 0.00 | 0.53 | 0.00 | 83 | 1015.6 |
| 20260504191312 | 49 | 46 | 2.0 | 7.0 | 0.00 | 0.53 | 0.00 | 84 | 1015.5 |
| 20260504190813 | 49 | 39 | 1.0 | 5.0 | 0.00 | 0.53 | 0.00 | 85 | 1015.5 |
| 20260504190524 | 48 | 5 | 1.0 | 5.0 | 0.00 | 0.53 | 0.00 | 86 | 1015.4 |
| 20260504185801 | 48 | 17 | 1.0 | 5.0 | 0.00 | 0.53 | 0.00 | 86 | 1015.3 |
| 20260504185255 | 48 | 29 | 1.0 | 5.0 | 0.00 | 0.53 | 0.00 | 86 | 1015.3 |
| 20260504184746 | 49 | 336 | 2.0 | 7.0 | 0.00 | 0.53 | 0.00 | 86 | 1015.3 |
| 20260504184242 | 49 | 52 | 2.0 | 7.0 | 0.00 | 0.53 | 0.00 | 85 | 1015.2 |
| 20260504183735 | 49 | 26 | 2.0 | 6.0 | 0.00 | 0.53 | 0.00 | 84 | 1015.1 |
| 20260504183229 | 49 | 34 | 2.0 | 6.0 | 0.00 | 0.53 | 0.00 | 84 | 1014.8 |
| 20260504182723 | 49 | 48 | 2.0 | 6.0 | 0.00 | 0.53 | 0.00 | 83 | 1014.8 |
| 20260504182440 | 49 | 50 | 1.0 | 6.0 | 0.00 | 0.53 | 0.00 | 83 | 1014.8 |
| 20260504181937 | 50 | 30 | 1.0 | 6.0 | 0.00 | 0.53 | 0.00 | 82 | 1014.8 |
| 20260504181249 | 50 | 48 | 1.0 | 6.0 | 0.00 | 0.53 | 0.00 | 82 | 1014.8 |
| 20260504180154 | 50 | 55 | 1.0 | 4.0 | 0.00 | 0.54 | 0.00 | 81 | 1014.8 |
| 20260504175649 | 50 | 19 | 1.0 | 4.0 | 0.00 | 0.54 | 0.00 | 80 | 1014.7 |
| 20260504175142 | 51 | 314 | 1.0 | 7.0 | 0.00 | 0.54 | 0.00 | 80 | 1014.7 |
| 20260504174635 | 51 | 303 | 1.0 | 8.0 | 0.00 | 0.54 | 0.00 | 80 | 1014.8 |
| 20260504174129 | 51 | 294 | 1.0 | 8.0 | 0.00 | 0.54 | 0.00 | 80 | 1014.8 |
| 20260504173623 | 51 | 308 | 1.0 | 5.0 | 0.00 | 0.54 | 0.00 | 80 | 1014.7 |
| 20260504173343 | 51 | 346 | 1.0 | 5.0 | 0.00 | 0.54 | 0.00 | 80 | 1014.7 |
| 20260504172832 | 50 | 350 | 1.0 | 7.0 | 0.00 | 0.54 | 0.00 | 81 | 1014.7 |
| 20260504172105 | 50 | 38 | 2.0 | 7.0 | 0.00 | 0.54 | 0.00 | 81 | 1014.7 |
| 20260504171559 | 50 | 261 | 1.0 | 5.0 | 0.00 | 0.55 | 0.00 | 81 | 1014.7 |
| 20260504171058 | 51 | 55 | 1.0 | 4.0 | 0.00 | 0.57 | 0.00 | 80 | 1014.6 |
| 20260504170547 | 51 | 37 | 1.0 | 7.0 | 0.00 | 0.58 | 0.00 | 79 | 1014.7 |
| 20260504170304 | 51 | 300 | 1.0 | 7.0 | 0.00 | 0.58 | 0.00 | 79 | 1014.7 |
| 20260504151011 | 51 | 284 | 1.0 | 6.0 | 0.00 | 0.64 | 0.00 | 79 | 1015.5 |
| 20260504150514 | 50 | 284 | 1.0 | 6.0 | 0.00 | 0.64 | 0.00 | 80 | 1015.5 |
| 20260504141007 | 50 | 32 | 2.0 | 6.0 | 0.00 | 0.69 | 0.00 | 82 | 1015.8 |
| 20260504140505 | 50 | 14 | 2.0 | 6.0 | 0.00 | 0.69 | 0.00 | 82 | 1015.8 |
| 20260504130359 | 50 | 329 | 1.0 | 6.0 | 0.00 | 0.70 | 0.69 | 85 | 1016.1 |
| 20260504120117 | 51 | 14 | 2.0 | 6.0 | 0.00 | 0.71 | 0.69 | 83 | 1016.5 |
| 20260504110315 | 50 | 31 | 0.0 | 3.0 | 0.00 | 0.71 | 0.69 | 84 | 1016.5 |
| 20260504100448 | 51 | 44 | 1.0 | 5.0 | 0.00 | 0.72 | 0.69 | 83 | 1015.8 |
| 20260504081723 | 53 | 25 | 1.0 | 3.0 | 0.00 | 0.81 | 0.69 | 83 | 1014.6 |
| 20260504081228 | 53 | 40 | 1.0 | 3.0 | 0.00 | 0.81 | 0.69 | 82 | 1014.5 |
| 20260504080723 | 53 | 59 | 2.0 | 5.0 | 0.00 | 0.81 | 0.69 | 82 | 1014.4 |
| 20260504080226 | 53 | 7 | 1.0 | 5.0 | 0.00 | 0.81 | 0.69 | 83 | 1014.3 |
| 20260504070217 | 55 | 38 | 1.0 | 4.0 | 0.00 | 0.81 | 0.69 | 90 | 1013.7 |
| 20260504060204 | 56 | 29 | 2.0 | 7.0 | 0.00 | 0.81 | 0.69 | 88 | 1013.8 |
| 20260504050702 | 57 | 47 | 2.0 | 6.0 | 0.01 | 0.81 | 0.69 | 89 | 1013.5 |
| 20260504050420 | 57 | 20 | 2.0 | 8.0 | 0.01 | 0.81 | 0.69 | 89 | 1013.5 |
| 20260504045918 | 58 | 19 | 2.0 | 7.0 | 0.01 | 0.81 | 0.69 | 89 | 1013.5 |
| 20260504045156 | 58 | 3 | 2.0 | 7.0 | 0.01 | 0.81 | 0.69 | 90 | 1013.4 |
| 20260504044649 | 58 | 54 | 2.0 | 6.0 | 0.02 | 0.81 | 0.69 | 91 | 1013.4 |
| 20260504044142 | 58 | 9 | 2.0 | 7.0 | 0.02 | 0.81 | 0.69 | 92 | 1013.5 |
| 20260504043637 | 58 | 59 | 2.0 | 7.0 | 0.02 | 0.81 | 0.69 | 92 | 1013.4 |
| 20260504043131 | 58 | 27 | 1.0 | 5.0 | 0.05 | 0.81 | 0.69 | 93 | 1013.4 |
| 20260504042624 | 58 | 359 | 0.0 | 4.0 | 0.05 | 0.81 | 0.69 | 93 | 1013.5 |
| 20260504042119 | 58 | 72 | 0.0 | 5.0 | 0.05 | 0.81 | 0.69 | 93 | 1013.4 |
| 20260504041613 | 58 | 286 | 1.0 | 5.0 | 0.05 | 0.81 | 0.69 | 93 | 1013.4 |
| 20260504041108 | 58 | 312 | 0.0 | 3.0 | 0.04 | 0.80 | 0.69 | 93 | 1013.2 |
| 20260504040602 | 58 | 50 | 0.0 | 2.0 | 0.04 | 0.80 | 0.69 | 93 | 1013.5 |
| 20260504040054 | 58 | 295 | 1.0 | 4.0 | 0.04 | 0.80 | 0.69 | 93 | 1013.4 |
| 20260504035811 | 58 | 304 | 1.0 | 6.0 | 0.04 | 0.80 | 0.69 | 93 | 1013.2 |
| 20260504035042 | 58 | 80 | 1.0 | 6.0 | 0.04 | 0.80 | 0.69 | 92 | 1013.2 |
| 20260504034537 | 59 | 22 | 1.0 | 6.0 | 0.02 | 0.79 | 0.68 | 92 | 1013.4 |
| 20260504034030 | 59 | 337 | 2.0 | 13.0 | 0.02 | 0.79 | 0.67 | 92 | 1013.2 |
| 20260504033524 | 59 | 24 | 1.0 | 13.0 | 0.02 | 0.79 | 0.67 | 91 | 1013.1 |
| 20260504033020 | 59 | 33 | 1.0 | 6.0 | 0.00 | 0.76 | 0.65 | 91 | 1013.2 |
| 20260504032512 | 59 | 56 | 2.0 | 6.0 | 0.00 | 0.76 | 0.65 | 91 | 1013.2 |
| 20260504032006 | 59 | 36 | 2.0 | 6.0 | 0.00 | 0.76 | 0.65 | 91 | 1013.2 |
| 20260504031501 | 60 | 57 | 1.0 | 5.0 | 0.00 | 0.76 | 0.65 | 91 | 1013.2 |
| 20260504030954 | 60 | 51 | 1.0 | 5.0 | 0.00 | 0.76 | 0.65 | 91 | 1013.2 |
| 20260504030448 | 60 | 288 | 2.0 | 8.0 | 0.00 | 0.76 | 0.65 | 91 | 1013.4 |
| 20260504025944 | 60 | 301 | 2.0 | 8.0 | 0.00 | 0.76 | 0.65 | 91 | 1013.4 |
| 20260504025437 | 60 | 297 | 1.0 | 6.0 | 0.00 | 0.76 | 0.65 | 91 | 1013.4 |
| 20260504024930 | 60 | 358 | 2.0 | 11.0 | 0.00 | 0.76 | 0.65 | 91 | 1013.4 |
| 20260504024424 | 60 | 286 | 2.0 | 11.0 | 0.00 | 0.76 | 0.65 | 91 | 1013.5 |
| 20260504023918 | 60 | 57 | 2.0 | 8.0 | 0.00 | 0.76 | 0.65 | 91 | 1013.6 |
| 20260504023412 | 60 | 3 | 2.0 | 7.0 | 0.00 | 0.76 | 0.65 | 91 | 1013.7 |
| 20260504022906 | 60 | 299 | 2.0 | 9.0 | 0.00 | 0.76 | 0.65 | 91 | 1013.7 |
| 20260504022400 | 60 | 54 | 2.0 | 12.0 | 0.00 | 0.76 | 0.65 | 92 | 1013.8 |
| 20260504021853 | 60 | 27 | 1.0 | 12.0 | 0.00 | 0.76 | 0.65 | 92 | 1013.9 |
| 20260504021355 | 60 | 292 | 2.0 | 7.0 | 0.00 | 0.76 | 0.65 | 93 | 1013.9 |
| 20260504020852 | 60 | 348 | 2.0 | 7.0 | 0.00 | 0.76 | 0.65 | 93 | 1013.9 |
| 20260504020616 | 60 | 50 | 2.0 | 8.0 | 0.00 | 0.76 | 0.65 | 93 | 1014.1 |
| 20260504020116 | 59 | 76 | 2.0 | 9.0 | 0.00 | 0.76 | 0.65 | 93 | 1014.3 |
| 20260504015350 | 60 | 14 | 1.0 | 9.0 | 0.00 | 0.76 | 0.65 | 94 | 1014.4 |
| 20260504014849 | 59 | 281 | 2.0 | 9.0 | 0.00 | 0.76 | 0.65 | 93 | 1014.3 |
| 20260504014349 | 60 | 7 | 2.0 | 9.0 | 0.00 | 0.76 | 0.65 | 94 | 1014.4 |
| 20260504013848 | 60 | 355 | 2.0 | 9.0 | 0.00 | 0.76 | 0.65 | 94 | 1014.2 |
| 20260504013609 | 59 | 293 | 2.0 | 10.0 | 0.01 | 0.76 | 0.65 | 94 | 1014.6 |
| 20260504012846 | 59 | 306 | 3.0 | 12.0 | 0.01 | 0.76 | 0.65 | 94 | 1014.6 |
| 20260504012346 | 59 | 58 | 3.0 | 12.0 | 0.02 | 0.76 | 0.65 | 94 | 1014.6 |
| 20260504011846 | 59 | 345 | 2.0 | 17.0 | 0.05 | 0.76 | 0.65 | 94 | 1014.7 |